COSMOS 2058

Last updated on Thu Oct 30 2025 00:02:15 GMT+0000 (Coordinated Universal Time)

1 20465U 90010A 25302.49769433 .00004296 00000+0 26250-3 0 9992 2 20465 82.4699 176.5451 0011454 63.7817 296.4588 15.09982121922433
UTC large
Height (km)
Speed (km/s)
/
Latitude / Longitude
Inclination (degrees)
Orbital Period (minutes)
Azimuth
Elevation
Range (km)
Doppler Factor

Next 0 passes for location: London (51.5072 / 0.1276)

Sorry there are no passes over London.